Flag for USA Past Weather in Warminster Township, Pennsylvania, USA — Yesterday and Last 2 Weeks

Now
93 °F

Passing clouds.


Feels Like: 91 °F
Forecast: 73 / 94 °F
Wind: 7 mph from North

Location: Doylestown Airport

Current Time: Jul 23, 2016 at 7:14:29 PM

Latest Report: Jul 23, 2016 at 5:54 PM


Visibility: 10 mi

Pressure: 29.79 "Hg

Humidity: 28%

Dew Point: 55 °F

Location of Warminster TownshipLocation

Past Weather in Warminster Township — Graph

°F

Warminster Township Temperature Yesterday

Maximum temperature yesterday: 92 °F (at 4:54 PM)
Minimum temperature yesterday: 69 °F (at 3:54 AM)
Average temperature yesterday: 81 °F

High & Low Weather Summary for the Past Weeks

 TemperatureHumidityPressure
High95 °F (Jul 23, 4:54 PM)100% (Jul 9, 12:01 AM)30.23 "Hg (Jul 9, 12:01 AM)
Low57 °F (Jul 11, 5:54 AM)27% (Jul 23, 4:54 PM)29.75 "Hg (Jul 9, 6:54 PM)
Average76 °F70%29.99 "Hg
* Reported Jul 8 5:54 PM — Jul 23 5:54 PM, Warminster Township, Weather by CustomWeather, © 2016

Note: Actual official high and low records may vary slightly from our data, if they occured in-between our weather recording intervals... More about our weather records

Advertising

Warminster Township Weather History for the Previous 24 Hours

Scroll right to see more
 ConditionsComfort  
Time TempWeatherWind HumidityBarometerVisibility
5:54 PM
Sat, Jul 23
93 °FPassing clouds.7 mph28%29.79 "Hg10 mi
4:54 PM95 °FPassing clouds.7 mph27%29.80 "Hg10 mi
3:54 PM94 °FSunny.7 mph28%29.83 "Hg10 mi
2:54 PM94 °FPassing clouds.8 mph29%29.83 "Hg10 mi
1:54 PM93 °FSunny.15 mph28%29.84 "Hg10 mi
12:54 PM91 °FSunny.10 mph32%29.86 "Hg10 mi
11:54 AM90 °FSunny.8 mph38%29.87 "Hg10 mi
10:54 AM88 °FSunny.9 mph42%29.88 "Hg10 mi
9:54 AM85 °FPassing clouds.6 mph63%29.88 "Hg10 mi
8:54 AM83 °FSunny.7 mph65%29.88 "Hg10 mi
7:54 AM79 °FSunny.3 mph74%29.88 "Hg10 mi
6:54 AM75 °FPartly sunny.No wind79%29.88 "Hg10 mi
5:54 AM74 °FPassing clouds.No wind79%29.87 "Hg10 mi
4:54 AM73 °FClear.No wind79%29.85 "Hg10 mi
3:54 AM72 °FClear.3 mph84%29.85 "Hg10 mi
2:54 AM74 °FClear.No wind79%29.84 "Hg10 mi
1:54 AM76 °FClear.3 mph74%29.84 "Hg10 mi
12:54 AM77 °FClear.3 mph74%29.84 "Hg10 mi
11:54 PM
Fri, Jul 22
80 °FClear.7 mph67%29.84 "Hg10 mi
10:54 PM82 °FClear.8 mph63%29.83 "Hg10 mi
9:54 PM82 °FClear.5 mph58%29.83 "Hg10 mi
8:54 PM84 °FSunny.6 mph55%29.82 "Hg10 mi
7:54 PM86 °FSunny.5 mph53%29.82 "Hg10 mi
Weather by CustomWeather, © 2016

See weather overviewHow to use our weather pages